Other Public Products
Issued by NWS Grand Forks, ND

Home | Current Version | Previous Version | Text Only | Print | Product List | Glossary Off
Versions: 1 2 3 4 5 6 7 8 9 10 11 12 13 14 15 16 17 18 19 20 21 22 23 24 25 26 27 28 29 30 31 32 33 34 35 36 37 38 39 40 41 42 43 44 45 46 47 48 49 50

000
FPUS83 KFGF 190110
OPUFGF
PRAIRIE TO PINES WEATHER ROUNDUP
NATIONAL WEATHER SERVICE EASTERN NORTH DAKOTA/GRAND FORKS ND
800 PM CDT FRI APR 18 2014

 **SATELLITE DATA USED TO AUGMENT SKY COVER AT AUTOMATED STATIONS**
 *****  WEATHER ACROSS EASTERN NORTH DAKOTA  *****

CITY           SKY/WX    TMP DP  RH WIND       PRES   REMARKS
GRAND FORKS    CLOUDY    47  28  47 SE24G39   29.98F
GRAND FORKS AF CLOUDY    46  29  51 SE23G32   29.97F
GRAND CITY NWS   N/A     46 N/A N/A E21         N/A
BUXTON         NOT AVBL
DEVILS LAKE    CLOUDY    45  28  53 SE25G31   29.85F
FARGO          CLOUDY    45  28  51 E24G36    29.97F
WAHPETON ARPT  MOCLDY    45  30  57 SE22G30   29.99F
$$

 *****  WEATHER ACROSS CENTRAL AND WESTERN NORTH DAKOTA  *****

CITY           SKY/WX    TMP DP  RH WIND       PRES   REMARKS
JAMESTOWN      CLOUDY    46  36  68 SE31G48   29.80F
BISMARCK       CLOUDY    53  38  56 E17G28    29.65F
MINOT          CLOUDY    47  33  58 E20G31    29.73R
MINOT AFB      CLOUDY    47  35  61 SE20G28   29.73S
GARRISON         N/A     48  35  60 E17G24    29.69R
WILLISTON      RAIN      48  44  86 W7        29.68R FOG
DICKINSON      CLOUDY    58  38  47 SE7       29.60S
HETTINGER      CLOUDY    62  41  46 E6        29.59F
$$

 *****  OTHER OBSERVATIONS NORTHEAST NORTH DAKOTA  *****

CITY           SKY/WX    TMP DP  RH WIND       PRES   REMARKS
WALHALLA         N/A     46  30  53 SE20G29   29.97F
LANGDON        CLOUDY    45  28  53 SE25G37   29.91F
CAVALIER       CLOUDY    45  32  61 SE14G23   29.98F
GRAFTON        FAIR      46  32  57 SE16G23   29.98F
CANDO          MOCLDY    45  32  61 SE23G39   29.85F
FORT TOTTEN      N/A     45  28  50 SE17      29.95S
ROLLA          MIX PCPN  41  32  70 SE22G31   29.86R
RUGBY          FAIR      45  32  61 SE26G39   29.78F
 ***** THE ABOVE OBSERVATIONS ARE NON NWS ARE NOT QUALITY
        CONTROLLED AND MAY MIS-REPORT RAIN FOR SNOW...
$$

 *****  OTHER OBSERVATIONS SOUTHEAST NORTH DAKOTA *****

CITY           SKY/WX    TMP DP  RH WIND       PRES   REMARKS
COOPERSTOWN    FAIR      43  30  61 SE35G44   29.88F
VALLEY CITY    FAIR      45  32  61 SE25G38   29.88F
OAKES          FAIR      46  37  71 E31G41    29.82F
GWINNER        CLEAR     48  36  61 SE30G41   29.90F
SHEYENNE NWR     N/A     47  33  57 SE23      29.95S
BUFFALO        NOT AVBL
WYNDMERE       NOT AVBL
 ***** THE ABOVE OBSERVATIONS ARE NON NWS ARE NOT QUALITY
       CONTROLLED AND MAY MIS-REPORT RAIN FOR SNOW...
$$

  *****  WEATHER ACROSS NORTHERN MINNESOTA  *****

CITY           SKY/WX    TMP DP  RH WIND       PRES   REMARKS
FLAG ISLAND    MOCLDY    39  16  38 E15G22    30.16F
WARROAD        CLOUDY    39  27  60 E10       30.14S
ROSEAU         CLOUDY    46  19  34 SE14      30.11F
HALLOCK        CLOUDY    46  25  42 SE18G25   30.02F
THF RVR FALLS  CLOUDY    45  25  45 SE17G25   30.07F
HALSTAD          N/A     45  25  45 SE29G41     N/A
FOSSTON        CLOUDY    43  21  42 SE15G23   30.09F
BAUDETTE       CLOUDY    42  17  36 E13       30.16F
WASKISH        CLOUDY    45  19  36 E9G17     30.16S
CROOKSTON      CLOUDY    46  30  53 SE21G26   30.04F
$$
  *****  WEATHER ACROSS CENTRAL AND WEST MINNESOTA  *****

CITY           SKY/WX    TMP DP  RH WIND       PRES   REMARKS
BEMIDJI        CLOUDY    43  22  44 SE16G24   30.15S
PARK RAPIDS    CLOUDY    42  22  44 SE15G25   30.15F
WADENA         CLOUDY    39  27  60 E16G25    30.13F
DETROIT LAKES  CLOUDY    43  27  52 SE24G31   30.08F
MOORHEAD       NOT AVBL
FERGUS FALLS   MOCLDY    45  25  45 SE24G37   30.01F
ELBOW LAKE     FAIR      43  30  59 SE24G32   30.04F
MORRIS MN      CLEAR     45  34  65 E25G32    30.03S
STAPLES        CLOUDY    41  25  52 SE12      30.17F
WHEATON        PTCLDY    48  37  66 E29G35    29.99F
$$
  *****  WEATHER ELSEWHERE ACROSS MINNESOTA  *****

CITY           SKY/WX    TMP DP  RH WIND       PRES   REMARKS
DULUTH         PTCLDY    35  19  52 E13       30.29F
INTRNTL FALLS  MOCLDY    41  13  31 SE9       30.22F
ELY            CLEAR     37  21  52 SE10      30.29S
CLOQUET        CLOUDY    36  18  48 E13       30.28F
BRAINERD       CLOUDY    46  23  40 SE10G18   30.21S
HIBBING        MOCLDY    38  18  44 SE10      30.27S
ALEXANDRIA     MOCLDY    43  29  57 E20G29    30.10F
SAINT CLOUD    PTCLDY    43  26  51 E8        30.18F
MINNEAPOLIS    MOCLDY    49  27  42 SE13      30.22F
$$

  *****  WEATHER ACROSS SOUTH DAKOTA  *****

CITY           SKY/WX    TMP DP  RH WIND       PRES   REMARKS
SIOUX FALLS    CLOUDY    61  36  39 S23       29.96F
BROOKINGS      NOT AVBL
WATERTOWN      MOCLDY    57  37  47 SE20G26   29.89F
HURON          CLOUDY    66  40  38 S20G31    29.78F
SISSETON         N/A     47  38  71 SE24G32   29.93F
ABERDEEN       PTCLDY    61  38  42 SE23G35   29.77F
MITCHELL       CLOUDY    67  41  38 S22G33    29.84F
PIERRE         MOCLDY    71  38  29 SE21G31   29.62F
MOBRIDGE       CLOUDY    65  37  35 SE21      29.54F
RAPID CITY     MOCLDY    70  42  36 CALM      29.61R
$$

  *****  SOME WEATHER IN NEARBY STATES *****

CITY           SKY/WX    TMP DP  RH WIND       PRES   REMARKS
GLASGOW MT     RAIN      42  40  92 W21G40    29.73R FOG
GREAT FALLS MT PTSUNNY   45  16  31 SW30G37   29.77R
CHEYENNE WY    CLOUDY    65  24  21 SW12      29.89R
SCOTTSBLUFF NE MOCLDY    75  30  19 S15       29.74F
OMAHA NE       MOCLDY    65  38  36 S14       30.07F
DES MOINES IA  PTCLDY    62  33  33 SE10      30.17F
DAVENPORT IA   CLEAR     53  30  41 E8        30.28S
CHICAGO IL     CLEAR     40  28  62 NE12      30.35R
EAU CLAIRE WI  PTCLDY    48  24  39 E10       30.27F
LA CROSSE WI   MOCLDY    53  26  35 SE8       30.27S
$$

  *****  SOME NATIONAL WEATHER *****

CITY           SKY/WX    TMP DP  RH WIND       PRES   REMARKS
LA GUARDIA NY  CLOUDY    43  30  60 S9        30.31R
RALEIGH NC     LGT RAIN  54  42  64 N3        30.27R
ATLANTA GA     RAIN      50  47  89 N10       30.16S FOG
NEW ORLEANS LA PTCLDY    65  57  75 NE12      30.08R
OKLAHOMA CITY  PTCLDY    65  43  44 S8        30.11S
ALBUQUERQUE NM CLOUDY    73  20  13 S25G33    30.00S
SALT LAKE CITY PTSUNNY   61  41  47 NW8       29.92F
LOS ANGELES CA PTSUNNY   64  54  69 W13       29.89S
BOISE ID       MOSUNNY   61  20  20 NE10      29.96F
SEATTLE WA     PTSUNNY   56  33  42 CALM      30.05F
$$

*** WEATHER ACROSS MANITOBA...SASKATCHEWAN AND ONTARIO ***
                ***ONTARIO***

CITY           SKY/WX    TMP DP  RH WIND       PRES   REMARKS
GERALDTON      PTCLDY    34  12  40 NE2       30.37R
THUNDER BAY    PTCLDY    36  25  64 VRB2      30.38F
SIOUX LOOKOUT  PTCLDY    39   5  24 SE5       30.28F
TORONTO        PTCLDY    45  32  61 NW13G20   30.26R
BIG TROUT LK   CLEAR     30  14  51 S5        30.36S
PICKLE LAKE    MOCLDY    39   7  26 S6        30.31F
DRYDEN         CLEAR     37  14  38 SE10      30.25F
KENORA         PTCLDY    39  14  35 SE10      30.20F
$$
                *** MANITOBA***

CITY           SKY/WX    TMP DP  RH WIND       PRES   REMARKS
BRANDON        CLOUDY    41  28  60 E23       29.91F
DAUPHIN        LGT SNOW  32  30  93 E18G25    29.97F VSB 3/4 WCI  20
ISLAND LAKE    PTCLDY    37  14  38 E3        30.26F
PILOT MOUND      N/A     43  28  56 SE25G36     N/A
THE PAS        CLOUDY    36  16  44 E14G20    30.08F
THOMPSON       PTCLDY    39   7  26 SE7       30.22F
WINNIPEG       CLOUDY    43  18  36 SE21G29   30.07F
LYNN LAKE      CLEAR     37   7  28 SE13      30.13S
CHURCHILL      CLEAR     19  14  79 S13       30.38S WCI   7
GILLAM         CLEAR     34  18  51 E6        30.32F
$$
                ***SASKATCHEWAN***

CITY           SKY/WX    TMP DP  RH WIND       PRES   REMARKS
ESTEVAN        LGT RAIN  43  39  87 SE15      29.70F
KINDERSLEY     LGT RAIN  43  41  93 N16G23    29.52F
LLOYDMINSTER   CLOUDY    32  30  93 E12       29.71R WCI  23
PRINCE ALBERT  LGT SNOW  32  28  86 E22G31    29.84F FOG     WCI  19
REGINA         LGT RAIN  37  36  93 SE20G28   29.66F



USA.gov is the U.S. government's official web portal to all federal, state and local government web resources and services.